When you browse on this site, cookies collect data to enhance your experience and personalize the content and advertising you see.
Visit our Privacy Policy to learn more. By continuing to use the site, you agree to this use of cookies and data.
  • In Czech Republic
  • List of Countries
  • For 7 days
  • Water Temperature
  • Satellite Maps
  • Weather Map
  • Weather Widgets
  • user-avatar
    Login

    Hourly Weather Klonorejsc

    Today, 20 February, Wednesday

    Time Temperature Precipitation Wind Pressure Humidity
    00:00 +1°C° 0 mm 5 mps 738 mmHg 88%
    01:00 +1°C° 0 mm 5 mps 738 mmHg 88%
    02:00 +1°C° 0 mm 5 mps 738 mmHg 89%
    03:00 +1°C° 0 mm 5 mps 738 mmHg 88%
    04:00 +1°C° 0 mm 6 mps 738 mmHg 87%
    05:00 +2°C° 0 mm 6 mps 738 mmHg 85%
    06:00 +1°C° 0.1 mm 6 mps 738 mmHg 85%
    07:00 +1°C° 0.1 mm 6 mps 738 mmHg 84%
    08:00 +1°C° 0.1 mm 6 mps 738 mmHg 83%
    09:00 0°C° 0.1 mm 7 mps 738 mmHg 81%
    10:00 +2°C° 0.1 mm 7 mps 739 mmHg 79%
    11:00 +1°C° 0.1 mm 8 mps 739 mmHg 77%
    12:00 +1°C° 0 mm 8 mps 739 mmHg 76%
    13:00 +1°C° 0 mm 8 mps 739 mmHg 74%
    14:00 +2°C° 0 mm 8 mps 739 mmHg 73%
    15:00 +1°C° 0 mm 8 mps 740 mmHg 73%
    16:00 +1°C° 0 mm 8 mps 740 mmHg 74%
    17:00 0°C° 0 mm 8 mps 741 mmHg 74%
    18:00 -1°C° 0 mm 8 mps 741 mmHg 72%
    19:00 -2°C° 0 mm 7 mps 742 mmHg 69%
    20:00 -3°C° 0 mm 6 mps 743 mmHg 67%
    21:00 -4°C° 0 mm 6 mps 743 mmHg 66%
    22:00 -4°C° 0 mm 6 mps 744 mmHg 64%
    23:00 -5°C° 0 mm 5 mps 744 mmHg 63%

    Tomorrow, 21 February, Thursday

    Time Temperature Precipitation Wind Pressure Humidity
    00:00 -5°C° 0 mm 5 mps 745 mmHg 62%
    01:00 -5°C° 0 mm 5 mps 745 mmHg 61%
    02:00 -5°C° 0 mm 5 mps 746 mmHg 61%
    03:00 -5°C° 0 mm 5 mps 746 mmHg 60%
    04:00 -5°C° 0 mm 5 mps 746 mmHg 59%
    05:00 -5°C° 0 mm 5 mps 746 mmHg 58%
    06:00 -4°C° 0 mm 4 mps 746 mmHg 59%
    07:00 -4°C° 0 mm 4 mps 747 mmHg 59%
    08:00 -4°C° 0 mm 3 mps 747 mmHg 60%
    09:00 -4°C° 0 mm 3 mps 747 mmHg 56%
    10:00 -2°C° 0 mm 3 mps 747 mmHg 53%
    11:00 -1°C° 0 mm 3 mps 747 mmHg 49%
    12:00 -1°C° 0 mm 2 mps 747 mmHg 47%
    13:00 -1°C° 0 mm 2 mps 747 mmHg 45%
    14:00 +2°C° 0 mm 1 mps 747 mmHg 43%
    15:00 +2°C° 0 mm 1 mps 746 mmHg 45%
    16:00 +1°C° 0 mm 1 mps 746 mmHg 48%
    17:00 +1°C° 0 mm 1 mps 746 mmHg 50%
    18:00 -1°C° 0.1 mm 2 mps 746 mmHg 53%
    19:00 -2°C° 0.1 mm 2 mps 746 mmHg 56%
    20:00 -4°C° 0.1 mm 3 mps 746 mmHg 59%
    21:00 -4°C° 0 mm 3 mps 746 mmHg 57%
    22:00 -4°C° 0 mm 4 mps 747 mmHg 54%
    23:00 -4°C° 0 mm 4 mps 747 mmHg 52%

    Day after tomorrow, 22 February, Friday

    Time Temperature Precipitation Wind Pressure Humidity
    00:00 -4°C° 0 mm 4 mps 748 mmHg 54%
    01:00 -5°C° 0 mm 4 mps 748 mmHg 57%
    02:00 -5°C° 0 mm 4 mps 749 mmHg 59%
    03:00 -6°C° 0 mm 5 mps 750 mmHg 59%
    04:00 -7°C° 0 mm 5 mps 750 mmHg 60%
    05:00 -8°C° 0 mm 6 mps 751 mmHg 61%
    06:00 -9°C° 0 mm 6 mps 752 mmHg 61%
    07:00 -10°C° 0 mm 6 mps 753 mmHg 62%
    08:00 -10°C° 0 mm 6 mps 754 mmHg 62%
    09:00 -10°C° 0 mm 6 mps 755 mmHg 57%
    10:00 -10°C° 0 mm 6 mps 755 mmHg 53%
    11:00 -9°C° 0 mm 6 mps 756 mmHg 48%
    12:00 -9°C° 0 mm 6 mps 757 mmHg 44%
    13:00 -7°C° 0 mm 5 mps 758 mmHg 40%
    14:00 -7°C° 0 mm 5 mps 758 mmHg 36%
    15:00 -7°C° 0 mm 5 mps 758 mmHg 35%
    16:00 -7°C° 0 mm 5 mps 759 mmHg 34%
    17:00 -7°C° 0 mm 5 mps 759 mmHg 33%
    18:00 -7°C° 0 mm 5 mps 759 mmHg 35%
    19:00 -8°C° 0 mm 5 mps 760 mmHg 36%
    20:00 -8°C° 0 mm 4 mps 760 mmHg 38%
    21:00 -8°C° 0 mm 4 mps 761 mmHg 41%
    22:00 -9°C° 0 mm 4 mps 761 mmHg 45%
    23:00 -9°C° 0 mm 4 mps 761 mmHg 48%

    23 February, Saturday

    Time Temperature Precipitation Wind Pressure Humidity
    00:00 -9°C° 0 mm 4 mps 762 mmHg 50%
    01:00 -8°C° 0 mm 3 mps 762 mmHg 53%
    02:00 -9°C° 0 mm 3 mps 762 mmHg 55%
    03:00 -9°C° 0 mm 3 mps 762 mmHg 58%
    04:00 -8°C° 0 mm 2 mps 762 mmHg 60%
    05:00 -8°C° 0 mm 2 mps 761 mmHg 62%
    06:00 -8°C° 0 mm 2 mps 762 mmHg 63%
    07:00 -8°C° 0 mm 2 mps 762 mmHg 63%
    08:00 -10°C° 0 mm 3 mps 763 mmHg 63%
    09:00 -9°C° 0 mm 3 mps 763 mmHg 55%
    10:00 -6°C° 0 mm 2 mps 763 mmHg 47%
    11:00 -5°C° 0 mm 2 mps 763 mmHg 39%
    12:00 -5°C° 0 mm 2 mps 763 mmHg 37%
    13:00 -4°C° 0 mm 2 mps 763 mmHg 34%
    14:00 -3°C° 0 mm 2 mps 762 mmHg 31%
    15:00 -4°C° 0 mm 3 mps 762 mmHg 32%
    16:00 -4°C° 0 mm 3 mps 762 mmHg 34%
    17:00 -4°C° 0 mm 3 mps 761 mmHg 35%
    18:00 -4°C° 0 mm 3 mps 761 mmHg 38%
    19:00 -4°C° 0 mm 3 mps 761 mmHg 41%
    20:00 -4°C° 0 mm 3 mps 761 mmHg 44%
    21:00 -4°C° 0.1 mm 3 mps 761 mmHg 52%
    22:00 -5°C° 0.1 mm 3 mps 760 mmHg 61%
    23:00 -5°C° 0.1 mm 3 mps 760 mmHg 69%

    24 February, Sunday

    Time Temperature Precipitation Wind Pressure Humidity
    00:00 -4°C° 0 mm 4 mps 760 mmHg 69%
    01:00 -4°C° 0 mm 4 mps 760 mmHg 69%
    02:00 -4°C° 0 mm 4 mps 759 mmHg 69%
    03:00 -4°C° 0 mm 4 mps 759 mmHg 73%
    04:00 -3°C° 0 mm 4 mps 758 mmHg 77%
    05:00 -3°C° 0 mm 4 mps 758 mmHg 81%
    06:00 -3°C° 0 mm 4 mps 758 mmHg 84%
    07:00 -3°C° 0 mm 4 mps 758 mmHg 88%
    08:00 -2°C° 0 mm 3 mps 758 mmHg 91%
    09:00 -2°C° 0 mm 4 mps 758 mmHg 90%
    10:00 -1°C° 0 mm 4 mps 758 mmHg 89%
    11:00 -1°C° 0 mm 4 mps 758 mmHg 88%
    12:00 0°C° 0 mm 4 mps 758 mmHg 87%
    13:00 +1°C° 0 mm 3 mps 758 mmHg 87%
    14:00 +2°C° 0 mm 3 mps 758 mmHg 86%
    15:00 +2°C° 0 mm 3 mps 758 mmHg 88%
    16:00 +2°C° 0 mm 2 mps 757 mmHg 91%
    17:00 +2°C° 0 mm 2 mps 757 mmHg 93%
    18:00 +2°C° 0 mm 2 mps 757 mmHg 94%
    19:00 +1°C° 0 mm 2 mps 757 mmHg 95%
    20:00 +1°C° 0 mm 2 mps 757 mmHg 96%
    21:00 +1°C° 0 mm 2 mps 757 mmHg 96%
    22:00 +1°C° 0 mm 2 mps 757 mmHg 96%
    23:00 -1°C° 0 mm 2 mps 757 mmHg 96%

    25 February, Monday

    Time Temperature Precipitation Wind Pressure Humidity
    00:00 -1°C° 0 mm 2 mps 757 mmHg 95%
    01:00 -1°C° 0 mm 2 mps 757 mmHg 94%
    02:00 -1°C° 0 mm 3 mps 757 mmHg 94%
    03:00 -1°C° 0 mm 3 mps 756 mmHg 94%
    04:00 -1°C° 0 mm 3 mps 756 mmHg 93%
    05:00 -1°C° 0 mm 3 mps 756 mmHg 93%
    06:00 -1°C° 0 mm 3 mps 756 mmHg 94%
    07:00 -1°C° 0 mm 3 mps 756 mmHg 95%
    08:00 -1°C° 0 mm 3 mps 755 mmHg 96%
    09:00 -2°C° 0 mm 4 mps 756 mmHg 93%
    10:00 -1°C° 0 mm 5 mps 756 mmHg 89%
    11:00 0°C° 0 mm 5 mps 756 mmHg 86%
    12:00 +1°C° 0 mm 5 mps 756 mmHg 79%
    13:00 +2°C° 0 mm 5 mps 756 mmHg 71%
    14:00 +3°C° 0 mm 6 mps 756 mmHg 64%
    15:00 +2°C° 0 mm 5 mps 756 mmHg 67%
    16:00 +3°C° 0 mm 4 mps 756 mmHg 71%
    17:00 +1°C° 0 mm 4 mps 755 mmHg 74%
    18:00 +1°C° 0 mm 4 mps 755 mmHg 78%
    19:00 0°C° 0 mm 5 mps 756 mmHg 81%
    20:00 -1°C° 0 mm 5 mps 756 mmHg 84%
    21:00 -1°C° 0 mm 5 mps 756 mmHg 85%
    22:00 -2°C° 0 mm 5 mps 756 mmHg 86%
    23:00 -2°C° 0 mm 5 mps 756 mmHg 88%
    Show more